This demonstration page uses our WeatherBlox Daily Observations layout. Learn more.

Left ArrowRight Arrow

38.80484, -77.04692

Hourly Observations for August 3, 2018

Temp ( °F °C ) Dew Point ( °F °C ) Humidity (%) Winds ( mph kmh ) Pressure ( in mb ) Visibility ( mi km ) Precip ( " mm )
12:52 am 00:52 Mostly Cloudy 75 23.9 71 21.7 88 88 SSW 7 11 30.12 1020 10 16 0.00 0.00
1:25 am 01:25 Mostly Cloudy 75 23.9 71 21.7 88 88 S 9 15 30.15 1021 9 14 0.00 0.00
1:52 am 01:52 Cloudy 75 23.9 71 21.7 88 88 S 10 17 30.13 1020 9 14 0.00 0.00
2:52 am 02:52 Mostly Cloudy 74 23.3 70 21.1 88 88 SSW 9 15 30.12 1020 9 14 0.00 0.00
3:15 am 03:15 Mostly Cloudy 74 23.3 70 21.1 88 88 S 8 13 30.12 1020 9 14 0.00 0.00
3:39 am 03:39 Mostly Cloudy 74 23.3 70 21.1 88 88 S 8 13 30.12 1020 9 14 0.00 0.00
3:52 am 03:52 Mostly Cloudy 73 22.8 70 21.1 90 90 SSW 7 11 30.13 1020 9 14 0.00 0.00
4:52 am 04:52 Partly Cloudy 74 23.3 70 21.1 88 88 S 9 15 30.13 1020 8 13 0.00 0.00
5:01 am 05:01 Cloudy 74 23.3 70 21.1 88 88 S 9 15 30.12 1020 9 14 0.00 0.00
5:52 am 05:52 Cloudy 74 23.3 70 21.1 88 88 S 10 17 30.13 1020 9 14 0.00 0.00
6:29 am 06:29 Cloudy 74 23.3 70 21.1 88 88 S 9 15 30.15 1021 9 14 0.00 0.00
6:52 am 06:52 Cloudy 75 23.9 71 21.7 88 88 S 10 17 30.14 1021 10 16 0.00 0.00
7:24 am 07:24 Cloudy 75 23.9 71 21.7 88 88 S 10 17 30.15 1021 10 16 0.00 0.00
7:52 am 07:52 Cloudy 75 23.9 71 21.7 88 88 SSW 7 11 30.15 1021 10 16 0.00 0.00
7:59 am 07:59 Cloudy 75 23.9 71 21.7 88 88 SSW 9 15 30.15 1021 10 16 0.00 0.00
8:13 am 08:13 Cloudy 75 23.9 71 21.7 88 88 S 7 11 30.15 1021 10 16 0.00 0.00
8:52 am 08:52 Cloudy 76 24.4 71 21.7 85 85 SSW 9 15 30.15 1021 10 16 0.00 0.00
9:23 am 09:23 Cloudy with Mist and Fog 76 24.4 72 22.2 88 88 S 9 15 30.15 1021 6 10 0.00 0.00
9:52 am 09:52 Cloudy 76 24.4 72 22.2 88 88 S 10 17 30.16 1021 10 16 0.00 0.00
10:21 am 10:21 Cloudy 77 25 72 22.2 85 85 S 10 17 30.15 1021 10 16 0.00 0.00
10:52 am 10:52 Cloudy 78 25.6 73 22.8 85 85 SSW 12 19 30.16 1022 10 16 0.00 0.00
10:58 am 10:58 Mostly Cloudy 78 25.6 72 22.2 82 82 S 10 17 30.18 1022 10 16 0.00 0.00
11:52 am 11:52 Cloudy 81 27.2 71 21.7 72 72 SSW 13 20 30.16 1021 10 16 0.00 0.00
12:35 pm 12:35 Mostly Cloudy 83 28.3 72 22.2 70 70 SSW 16 26 30.15 1021 10 16 0.00 0.03
12:52 pm 12:52 Mostly Cloudy 82 27.8 71 21.7 69 69 SSW 13 20 30.14 1021 10 16 0.00 0.03
1:02 pm 13:02 Mostly Cloudy 83 28.3 71 21.7 67 67 SSW 13 20 30.15 1021 10 16 0.00 0.00
1:08 pm 13:08 Mostly Cloudy with Light Rain 83 28.3 71 21.7 67 67 SSW 13 20 30.15 1021 10 16 0.00 0.03
1:52 pm 13:52 Mostly Cloudy 82 27.8 71 21.7 69 69 SSW 16 26 30.14 1021 10 16 0.00 0.03
2:52 pm 14:52 Cloudy with Light Rain 82 27.8 73 22.8 74 74 S 13 20 30.13 1020 10 16 0.00 0.03
3:05 pm 15:05 Cloudy 82 27.8 73 22.8 74 74 S 13 20 30.12 1020 10 16 0.00 0.03
3:14 pm 15:14 Cloudy 83 28.3 74 23.3 74 74 S 12 19 30.12 1020 10 16 0.00 0.03
3:52 pm 15:52 Mostly Cloudy 84 28.9 71 21.7 65 65 S 12 19 30.10 1019 10 16 0.00 0.03
4:52 pm 16:52 Cloudy 82 27.8 71 21.7 69 69 S 7 11 30.10 1019 10 16 0.00 0.00
5:33 pm 17:33 Mostly Cloudy 81 27.2 73 22.8 77 77 SSE 8 13 30.09 1019 10 16 0.00 0.00
5:38 pm 17:38 Mostly Cloudy with Light Rain 80 26.7 73 22.8 79 79 S 10 17 30.09 1019 3 4 0.00 0.03
5:44 pm 17:44 Mostly Cloudy with Heavy Rain 79 26.1 73 22.8 82 82 SSW 9 15 30.09 1019 4 6 0.09 2.29
5:52 pm 17:52 Cloudy with Strong Thunderstorms 77 25 72 22.2 85 85 SSW 18 30 30.10 1019 2 2 0.14 3.56
6:00 pm 18:00 Cloudy with Strong Thunderstorms 76 24.4 71 21.7 85 85 SSW 9 15 30.09 1019 3 4 0.11 2.79
6:02 pm 18:02 Cloudy with Strong Thunderstorms 76 24.4 71 21.7 85 85 SSW 10 17 30.09 1019 4 6 0.12 3.05
6:08 pm 18:08 Cloudy with Light Rain 76 24.4 71 21.7 85 85 SSW 7 11 30.09 1019 7 11 0.13 3.30
6:52 pm 18:52 Cloudy with Light Rain 77 25 73 22.8 88 88 SSE 7 11 30.09 1019 10 16 0.14 3.56
7:52 pm 19:52 Mostly Cloudy 78 25.6 74 23.3 87 87 S 6 9 30.10 1019 10 16 0.00 0.03
8:52 pm 20:52 Cloudy with Light Rain 78 25.6 72 22.2 82 82 S 9 15 30.11 1020 10 16 0.00 0.03
9:52 pm 21:52 Cloudy with Rain 77 25 72 22.2 85 85 S 6 9 30.11 1020 8 13 0.01 0.25
10:16 pm 22:16 Cloudy with Light Rain 76 24.4 72 22.2 88 88 SSE 3 6 30.12 1020 10 16 0.02 0.51
10:42 pm 22:42 Cloudy 76 24.4 72 22.2 88 88 SSE 3 6 30.09 1019 10 16 0.02 0.51
10:52 pm 22:52 Cloudy 76 24.4 72 22.2 88 88 Calm 30.10 1019 10 16 0.02 0.51
11:52 pm 23:52 Mostly Cloudy 77 25 72 22.2 85 85 S 7 11 30.10 1019 10 16 0.00 0.00

Powered by AerisWeather